• In United Kingdom
  • List of Countries
  • For 7 days
  • Water Temperature
  • Satellite Maps
  • Weather Map
  • Weather Widgets
  • user-avatar
    Login

    Hourly Weather Kos

    Today, 17 January, Wednesday

    Time Temperature Precipitation Wind Pressure Humidity
    00:00 +8°C° 0.3 mm 7 mps 763 mmHg 94%
    01:00 +8°C° 0.3 mm 7 mps 763 mmHg 94%
    02:00 +9°C° 0 mm 7 mps 762 mmHg 93%
    03:00 +8°C° 0.1 mm 6 mps 762 mmHg 94%
    04:00 +8°C° 0.1 mm 6 mps 762 mmHg 94%
    05:00 +8°C° 0.1 mm 5 mps 762 mmHg 94%
    06:00 +8°C° 0 mm 5 mps 762 mmHg 95%
    07:00 +8°C° 0 mm 4 mps 762 mmHg 95%
    08:00 +8°C° 0 mm 4 mps 761 mmHg 96%
    09:00 +11°C° 0 mm 4 mps 761 mmHg 90%
    10:00 +13°C° 0 mm 4 mps 761 mmHg 84%
    11:00 +14°C° 0 mm 4 mps 761 mmHg 78%
    12:00 +15°C° 0 mm 5 mps 761 mmHg 76%
    13:00 +15°C° 0 mm 5 mps 760 mmHg 74%
    14:00 +15°C° 0 mm 6 mps 760 mmHg 72%
    15:00 +15°C° 0.2 mm 7 mps 759 mmHg 77%
    16:00 +13°C° 0.2 mm 8 mps 759 mmHg 81%
    17:00 +12°C° 0.2 mm 8 mps 758 mmHg 86%
    18:00 +12°C° 0.4 mm 9 mps 758 mmHg 88%
    19:00 +12°C° 0.4 mm 10 mps 758 mmHg 91%
    20:00 +12°C° 0.4 mm 10 mps 757 mmHg 93%
    21:00 +12°C° 0.2 mm 11 mps 757 mmHg 93%
    22:00 +13°C° 0.2 mm 11 mps 757 mmHg 92%
    23:00 +13°C° 0.2 mm 12 mps 756 mmHg 92%

    Tomorrow, 18 January, Thursday

    Time Temperature Precipitation Wind Pressure Humidity
    00:00 +13°C° 0.3 mm 12 mps 756 mmHg 91%
    01:00 +13°C° 0.3 mm 12 mps 755 mmHg 90%
    02:00 +13°C° 0.3 mm 13 mps 755 mmHg 89%
    03:00 +13°C° 0.5 mm 13 mps 755 mmHg 88%
    04:00 +13°C° 0.5 mm 14 mps 754 mmHg 86%
    05:00 +12°C° 0.5 mm 14 mps 754 mmHg 85%
    06:00 +11°C° 0.3 mm 15 mps 754 mmHg 80%
    07:00 +10°C° 0.3 mm 16 mps 754 mmHg 76%
    08:00 +9°C° 0.3 mm 16 mps 754 mmHg 71%
    09:00 +9°C° 0.1 mm 16 mps 755 mmHg 70%
    10:00 +9°C° 0.1 mm 16 mps 755 mmHg 68%
    11:00 +9°C° 0.1 mm 16 mps 756 mmHg 66%
    12:00 +6°C° 0.2 mm 17 mps 756 mmHg 72%
    13:00 +5°C° 0.2 mm 18 mps 757 mmHg 77%
    14:00 +3°C° 0.2 mm 18 mps 757 mmHg 82%
    15:00 +2°C° 0.3 mm 18 mps 758 mmHg 83%
    16:00 +2°C° 0.3 mm 18 mps 759 mmHg 84%
    17:00 +2°C° 0.3 mm 18 mps 759 mmHg 86%
    18:00 +1°C° 0.3 mm 17 mps 760 mmHg 83%
    19:00 +1°C° 0.3 mm 16 mps 761 mmHg 81%
    20:00 0°C° 0.3 mm 15 mps 762 mmHg 78%
    21:00 0°C° 0.1 mm 14 mps 763 mmHg 78%
    22:00 -1°C° 0.1 mm 13 mps 763 mmHg 77%
    23:00 -1°C° 0.1 mm 12 mps 764 mmHg 76%

    Day after tomorrow, 19 January, Friday

    Time Temperature Precipitation Wind Pressure Humidity
    00:00 -1°C° 0 mm 12 mps 764 mmHg 74%
    01:00 -1°C° 0 mm 11 mps 764 mmHg 72%
    02:00 0°C° 0 mm 10 mps 765 mmHg 69%
    03:00 -2°C° 0 mm 10 mps 765 mmHg 69%
    04:00 -1°C° 0 mm 9 mps 765 mmHg 68%
    05:00 -1°C° 0 mm 8 mps 765 mmHg 68%
    06:00 -1°C° 0 mm 8 mps 765 mmHg 67%
    07:00 -1°C° 0 mm 7 mps 766 mmHg 67%
    08:00 -1°C° 0 mm 7 mps 766 mmHg 67%
    09:00 +2°C° 0 mm 6 mps 766 mmHg 63%
    10:00 +6°C° 0 mm 5 mps 766 mmHg 58%
    11:00 +8°C° 0 mm 4 mps 767 mmHg 54%
    12:00 +10°C° 0 mm 4 mps 766 mmHg 51%
    13:00 +11°C° 0 mm 4 mps 766 mmHg 48%
    14:00 +12°C° 0 mm 3 mps 765 mmHg 45%
    15:00 +11°C° 0 mm 3 mps 765 mmHg 50%
    16:00 +10°C° 0 mm 4 mps 765 mmHg 55%
    17:00 +8°C° 0 mm 4 mps 765 mmHg 60%
    18:00 +7°C° 0 mm 4 mps 765 mmHg 60%
    19:00 +6°C° 0 mm 5 mps 766 mmHg 61%
    20:00 +6°C° 0 mm 5 mps 766 mmHg 61%
    21:00 +5°C° 0 mm 6 mps 766 mmHg 61%
    22:00 +5°C° 0 mm 6 mps 766 mmHg 61%
    23:00 +5°C° 0 mm 7 mps 766 mmHg 61%

    20 January, Saturday

    Time Temperature Precipitation Wind Pressure Humidity
    00:00 +6°C° 0.1 mm 7 mps 766 mmHg 67%
    01:00 +8°C° 0.1 mm 7 mps 766 mmHg 73%
    02:00 +8°C° 0.1 mm 7 mps 766 mmHg 79%
    03:00 +9°C° 0.1 mm 7 mps 766 mmHg 84%
    04:00 +10°C° 0.1 mm 7 mps 766 mmHg 89%
    05:00 +10°C° 0.1 mm 7 mps 766 mmHg 94%
    06:00 +10°C° 0.1 mm 7 mps 766 mmHg 94%
    07:00 +11°C° 0.1 mm 7 mps 766 mmHg 93%
    08:00 +11°C° 0.1 mm 6 mps 766 mmHg 93%
    09:00 +11°C° 0.1 mm 6 mps 766 mmHg 93%
    10:00 +13°C° 0.1 mm 6 mps 766 mmHg 92%
    11:00 +13°C° 0.1 mm 6 mps 766 mmHg 92%
    12:00 +13°C° 0 mm 6 mps 766 mmHg 91%
    13:00 +13°C° 0 mm 6 mps 765 mmHg 91%
    14:00 +13°C° 0 mm 6 mps 764 mmHg 91%
    15:00 +13°C° 0 mm 6 mps 764 mmHg 90%
    16:00 +13°C° 0 mm 6 mps 764 mmHg 89%
    17:00 +13°C° 0 mm 6 mps 764 mmHg 87%
    18:00 +11°C° 0 mm 6 mps 764 mmHg 88%
    19:00 +10°C° 0 mm 6 mps 765 mmHg 89%
    20:00 +9°C° 0 mm 6 mps 765 mmHg 90%
    21:00 +9°C° 0 mm 6 mps 765 mmHg 91%
    22:00 +10°C° 0 mm 7 mps 765 mmHg 92%
    23:00 +10°C° 0 mm 7 mps 765 mmHg 93%

    21 January, Sunday

    Time Temperature Precipitation Wind Pressure Humidity
    00:00 +10°C° 0 mm 8 mps 764 mmHg 93%
    01:00 +11°C° 0 mm 8 mps 764 mmHg 92%
    02:00 +11°C° 0 mm 9 mps 764 mmHg 92%
    03:00 +11°C° 0 mm 9 mps 763 mmHg 92%
    04:00 +11°C° 0 mm 8 mps 763 mmHg 92%
    05:00 +11°C° 0 mm 8 mps 763 mmHg 92%
    06:00 +11°C° 0.1 mm 8 mps 763 mmHg 92%
    07:00 +11°C° 0.1 mm 9 mps 763 mmHg 92%
    08:00 +11°C° 0.1 mm 9 mps 763 mmHg 91%
    09:00 +13°C° 0.1 mm 9 mps 762 mmHg 86%
    10:00 +14°C° 0.1 mm 10 mps 762 mmHg 82%
    11:00 +16°C° 0.1 mm 11 mps 762 mmHg 77%
    12:00 +16°C° 0.1 mm 11 mps 761 mmHg 76%
    13:00 +16°C° 0.1 mm 11 mps 760 mmHg 75%
    14:00 +16°C° 0.1 mm 11 mps 759 mmHg 74%
    15:00 +14°C° 0.3 mm 11 mps 758 mmHg 79%
    16:00 +13°C° 0.3 mm 11 mps 758 mmHg 83%
    17:00 +13°C° 0.3 mm 11 mps 757 mmHg 88%
    18:00 +12°C° 1 mm 12 mps 757 mmHg 89%
    19:00 +12°C° 1 mm 13 mps 756 mmHg 90%
    20:00 +12°C° 1 mm 13 mps 756 mmHg 91%
    21:00 +12°C° 1.7 mm 13 mps 755 mmHg 92%
    22:00 +12°C° 1.7 mm 13 mps 755 mmHg 93%
    23:00 +10°C° 1.7 mm 13 mps 754 mmHg 93%

    22 January, Monday

    Time Temperature Precipitation Wind Pressure Humidity
    00:00 +11°C° 1.4 mm 11 mps 753 mmHg 93%
    01:00 +11°C° 1.4 mm 10 mps 753 mmHg 93%
    02:00 +11°C° 1.4 mm 9 mps 752 mmHg 93%
    03:00 +10°C° 0.7 mm 8 mps 752 mmHg 93%
    04:00 +10°C° 0.7 mm 7 mps 752 mmHg 93%
    05:00 +9°C° 0.7 mm 5 mps 751 mmHg 93%
    06:00 +9°C° 0.2 mm 6 mps 751 mmHg 92%
    07:00 +9°C° 0.2 mm 6 mps 752 mmHg 91%
    08:00 +9°C° 0.2 mm 6 mps 752 mmHg 91%
    09:00 +10°C° 0.1 mm 6 mps 752 mmHg 84%
    10:00 +13°C° 0.1 mm 6 mps 752 mmHg 78%
    11:00 +14°C° 0.1 mm 7 mps 753 mmHg 72%
    12:00 +15°C° 0.4 mm 7 mps 753 mmHg 72%
    13:00 +15°C° 0.4 mm 7 mps 753 mmHg 71%
    14:00 +15°C° 0.4 mm 8 mps 753 mmHg 71%
    15:00 +13°C° 0.4 mm 8 mps 753 mmHg 74%
    16:00 +11°C° 0.4 mm 8 mps 754 mmHg 77%
    17:00 +10°C° 0.4 mm 8 mps 755 mmHg 80%
    18:00 +8°C° 0 mm 9 mps 756 mmHg 80%
    19:00 +6°C° 0 mm 10 mps 756 mmHg 81%
    20:00 +4°C° 0 mm 11 mps 757 mmHg 82%
    21:00 +4°C° 0 mm 11 mps 758 mmHg 82%
    22:00 +3°C° 0 mm 12 mps 758 mmHg 82%
    23:00 +3°C° 0 mm 12 mps 759 mmHg 82%
    Show more